Location: Unspecified
(0.0000°N, 0.0000°E)
Time: 03:48:53
(UTC+01:00)

GPS 2-15 Rocket1 - Visible Passes

Search period start: 04 March 2015 00:00
Search period end: 14 March 2015 00:00
Orbit: 627 x 679 km, 19.8° (Epoch: 03 March)

Date Brightness Start Highest point End Pass type
(mag) Time Alt. Az. Time Alt. Az. Time Alt. Az.
04 Mar 3.6 05:20:18 59° ENE 05:20:18 59° ENE 05:24:18 10° ENE visible
05 Mar 3.6 05:46:04 43° NW 05:46:32 44° NNW 05:51:13 10° NE visible
05 Mar 5.6 19:43:00 10° SW 19:44:58 12° SSW 19:46:51 10° S visible
06 Mar 6.2 04:34:04 11° ENE 04:34:04 11° ENE 04:34:12 10° ENE visible
06 Mar 4.5 06:11:47 19° NW 06:13:47 25° NNW 06:17:47 10° NE visible
07 Mar 5.5 04:59:43 18° NE 04:59:43 18° NE 05:01:03 10° NE visible
07 Mar 5.2 06:38:18 10° NW 06:41:09 15° NNW 06:43:56 10° NNE visible
08 Mar 5.1 05:25:19 19° N 05:25:19 19° N 05:27:32 10° NE visible
09 Mar 5.2 05:50:52 14° NNW 05:51:09 14° NNW 05:53:34 10° NNE visible
